Regional Weather Roundup
Issued by NWS

Home | Current Version | Previous Version | Text Only | Print | Product List | Glossary On
Versions: 1 2 3 4 5 6 7 8 9 10 11 12 13 14 15 16 17 18 19 20 21 22 23 24 25 26 27 28 29 30 31 32 33 34 35 36 37 38 39 40 41 42 43 44 45 46 47 48 49 50
000
ASUS45 KABQ 171610
RWRNM
WEATHER ROUNDUP FOR NEW MEXICO
NATIONAL WEATHER SERVICE ALBUQUERQUE NM
1000 AM MDT WED SEP 17 2014

NOTE: "FAIR" MEANS FEW OR NO CLOUDS BELOW 12,000 FEET AGL WITH NO
       SIGNIFICANT WEATHER OR OBSTRUCTIONS TO VISION.

      THIS PRODUCT IS RELEASED AS TWO VERSIONS.  ONE VERSION NEAR
      THE TOP OF THE HOUR CONTAINING PRELIMINARY DATA FROM ALBUQUERQUE
      AND OTHER STATIONS.  A FINAL VERSION WITH ADDITIONAL DATA IS
      ISSUED ABOUT 10 MINUTES AFTER THE HOUR.

NMZ501-503-504-510>518-171700-
NORTHWEST PLATEAU/NORTHCENTRAL MOUNTAINS

CITY           SKY/WX    TMP DP  RH WIND       PRES   REMARKS
FARMINGTON     SUNNY     68  52  56 SE8       30.17S
LOS ALAMOS     CLOUDY    58  53  84 CALM      30.30R
SANTA FE       CLOUDY    61  52  72 CALM      30.25R
TAOS           PTSUNNY   57  50  77 CALM      30.30
ANGEL FIRE     FAIR      54  43  65 CALM      30.36S

$$
NMZ402-403-502-505>509-171700-
WESTCENTRAL MOUNTAINS/SOUTHWEST MOUNTAINS

CITY           SKY/WX    TMP DP  RH WIND       PRES   REMARKS
GALLUP         CLOUDY    63  51  65 S5        30.24R
GRANTS         LGT RAIN  59  57  94 S5        30.28R
SILVER CITY    CLOUDY    64  61  88 NE8       30.18S

$$
NMZ407-409-411-412-171700-
SOUTHERN DESERTS

CITY           SKY/WX    TMP DP  RH WIND       PRES   REMARKS
DEMING         PTSUNNY   69  64  84 NE17      30.10S
LAS CRUCES     PTSUNNY   71  63  76 E6        30.12S
HOLLOMAN AFB   PTSUNNY   67  63  86 CALM      30.12R
ALAMOGORDO     CLOUDY    66  61  82 CALM      30.14R
T OR C         LGT RAIN  64  61  90 CALM      30.16R

$$
NMZ519>523-171700-
CENTRAL VALLEYS/CENTRAL HIGHLANDS

CITY           SKY/WX    TMP DP  RH WIND       PRES   REMARKS
ALBUQUERQUE    LGT RAIN  62  59  90 NW3       30.21R
DOUBLE EAGLE   LGT RAIN  61  57  88 CALM      30.24R
MORIARTY ARPT  DRIZZLE   58  55  88 CALM      30.26S
CLINES CORNERS CLOUDY    58  55  90 SW8       30.27S
BELEN          DRIZZLE   61  60  97 CALM      30.20R
SOCORRO        RAIN      62  61  96 N5        30.17S

$$
NMZ524>526-539-540-171700-
SOUTHCENTRAL MOUNTAINS

CITY           SKY/WX    TMP DP  RH WIND       PRES   REMARKS
RUIDOSO        CLOUDY    57  57 100 SE5       30.28S

$$
NMZ527>531-171700-
NORTHEAST HIGHLANDS/NORTHEAST PLAINS

CITY           SKY/WX    TMP DP  RH WIND       PRES   REMARKS
LAS VEGAS      CLOUDY    60  50  69 SW5       30.25S
RATON          CLOUDY    65  52  62 CALM      30.20R
CLAYTON        CLOUDY    73  56  54 SW13      30.11S

$$
NMZ532>537-171700-
EASTCENTRAL PLAINS

CITY           SKY/WX    TMP DP  RH WIND       PRES   REMARKS
TUCUMCARI      CLOUDY    74  61  63 SW18      30.10S
CANNON AFB     LGT RAIN  66  63  90 S7        30.15R
CLOVIS AIRPORT   N/A     66  63  88 SW13      30.16S

$$
NMZ028-029-538-171700-
SOUTHEAST PLAINS

CITY           SKY/WX    TMP DP  RH WIND       PRES   REMARKS
ROSWELL        CLOUDY    71  65  81 N5        30.11R
CARLSBAD       PTSUNNY   74  71  91 SE6       30.08R
HOBBS          MOSUNNY   73  68  83 SE8       30.11F


$$



USA.gov is the U.S. government's official web portal to all federal, state and local government web resources and services.